Flag for India Weather past 2 weeks in Jaipur, Rajasthan, India

Now
84 °F

Scattered clouds.


Feels Like: 94 °F
Forecast: 79 / 94 °F
Wind: 8 mph from West

Location: Jaipur / Sanganer

Current Time: Aug 29, 2015 at 9:07:03 AM

Latest Report: Aug 29, 2015 at 8:00 AM


Visibility: 2 mi

Pressure: 29.71 "Hg

Humidity: 79%

Dew point: 77 °F

Location of JaipurLocation

Historic Weather in Jaipur — Graph

°F

Jaipur temperature yesterday

Maximum temperature yesterday: 99 °F (at 3:00 PM)
Minimum temperature yesterday: 77 °F (at 5:00 AM)
Average temperature yesterday: 89 °F

Past Weeks' High & Low Weather Summary

 TemperatureHumidityPressure
High99 °F (Aug 28, 3:00 PM)100% (Aug 15, 2:00 AM)29.95 "Hg (Aug 15, 2:00 AM)
Low77 °F (Aug 16, 2:00 AM)44% (Aug 27, 2:00 PM)29.62 "Hg (Aug 14, 5:00 PM)
Average85 °F72%29.70 "Hg
* Reported Aug 14 9:00 AM — Aug 29 7:00 AM, Jaipur, Weather by CustomWeather, © 2015

Note: Actual official high and low records may vary slightly from our data, if they occured in-between our weather recording intervals... More about our weather records

Advertising

Jaipur weather history for previous 24 hours

 ConditionsComfort  
Time TempWeatherWind HumidityBarometerVisibility
7:00 AM
Sat, Aug 29
84 °FScattered clouds.7 mph74%29.68 "Hg2 mi
6:00 AM84 °FPassing clouds.5 mph74%29.68 "Hg2 mi
5:00 AM84 °FPassing clouds.3 mph74%29.68 "Hg2 mi
11:00 PM
Fri, Aug 28
90 °FPassing clouds.3 mph59%29.68 "Hg2 mi
10:00 PM91 °FPassing clouds.2 mph56%29.68 "Hg2 mi
9:00 PM91 °FPassing clouds.5 mph56%29.68 "Hg2 mi
7:00 PM95 °FScattered clouds.7 mph47%29.65 "Hg2 mi
6:00 PM95 °FScattered clouds.5 mph47%29.65 "Hg2 mi
5:00 PM97 °FScattered clouds.2 mph44%29.62 "Hg2 mi
4:00 PM99 °FScattered clouds.7 mph44%29.68 "Hg2 mi
3:00 PM99 °FScattered clouds.7 mph44%29.68 "Hg2 mi
1:00 PM95 °FBroken clouds.5 mph47%29.71 "Hg2 mi
12:30 PM95 °FBroken clouds.6 mph50%29.71 "Hg2 mi
12:00 PM95 °FScattered clouds.5 mph50%29.74 "Hg2 mi
11:30 AM93 °FBroken clouds.3 mph53%29.74 "Hg2 mi
11:00 AM91 °FScattered clouds.5 mph52%29.74 "Hg2 mi
10:00 AM88 °FScattered clouds.6 mph59%29.77 "Hg2 mi
9:30 AM86 °FScattered clouds.6 mph62%29.77 "Hg2 mi
9:00 AM86 °FScattered clouds.6 mph62%29.74 "Hg2 mi
Weather by CustomWeather, © 2015

See weather overviewHow to use our weather pages